Satellite: SO-50
Catalog number: 27607
Epoch time:      05202.64117191
Element set:     772
Inclination:      064.5592 deg
RA of node:       036.4000 deg
Eccentricity:    0.0079841
Arg of perigee:   232.0689 deg
Mean anomaly:     127.3101 deg
Mean motion:   14.70992435 rev/day
Decay rate:       -1.0e-07 rev/day^2
Epoch rev:           13880
Checksum:              277

Satellite: AO-51
Catalog number: 28375
Epoch time:      05202.16482965
Element set:     299
Inclination:      098.2141 deg
RA of node:       263.3734 deg
Eccentricity:    0.0084339
Arg of perigee:   127.7590 deg
Mean anomaly:     233.1275 deg
Mean motion:   14.40469485 rev/day
Decay rate:        7.0e-07 rev/day^2
Epoch rev:            5550
Checksum:              313

/EX
SB KEPS @ AMSAT  $ORB05202.W
Orbital Elements  05202.WEATHER

HR AMSAT ORBITAL ELEMENTS FOR WEATHER SATELLITES
FROM WA5QGD FORT WORTH,TX July 21, 2005
Send SUBSCRIBE KEPS/UNSUBSCRIBE KEPS to majordomo@amsat.org only
BID: ORB05202.W
TO ALL RADIO AMATEURS BT

Satellite: NOAA-10
Catalog number: 16969
Epoch time:      05202.18814725
Element set:     809
Inclination:      098.7619 deg
RA of node:       208.0300 deg
Eccentricity:    0.0013003
Arg of perigee:   038.2254 deg
Mean anomaly:     321.9871 deg
Mean motion:   14.27263221 rev/day
Decay rate:       1.20e-06 rev/day^2
Epoch rev:           97994
Checksum:              290

Satellite: NOAA-11
Catalog number: 19531
Epoch time:      05202.45367171
Element set:     672
Inclination:      098.8455 deg
RA of node:       289.1840 deg
Eccentricity:    0.0011222
Arg of perigee:   206.9817 deg
Mean anomaly:     153.0798 deg
Mean motion:   14.14760740 rev/day
Decay rate:      -1.15e-06 rev/day^2
Epoch rev:           86777
Checksum:              311

Satellite: NOAA-12
Catalog number: 21263
Epoch time:      05202.43271879
Element set:     163
Inclination:      098.7004 deg
RA of node:       192.5861 deg
Eccentricity:    0.0012419
Arg of perigee:   334.0164 deg
Mean anomaly:     026.0406 deg
Mean motion:   14.25465516 rev/day
Decay rate:        6.9e-07 rev/day^2
Epoch rev:           73712
Checksum:              278

Satellite: MET-3/5
Catalog number: 21655
Epoch time:      05201.90886319
Element set:    0873
Inclination:      082.5580 deg
RA of node:       134.8516 deg
Eccentricity:    0.0013435
Arg of perigee:   144.0971 deg
Mean anomaly:     216.1031 deg
Mean motion:   13.17003455 rev/day
Decay rate:        5.1e-07 rev/day^2
Epoch rev:           66975
Checksum:              288

Satellite: MET-2/21
Catalog number: 22782
Epoch time:      05201.89748334
Element set:    0258
Inclination:      082.5468 deg
RA of node:       234.2366 deg
Eccentricity:    0.0023134
Arg of perigee:   032.4533 deg
Mean anomaly:     327.8038 deg
Mean motion:   13.83592993 rev/day
Decay rate:        5.6e-07 rev/day^2
Epoch rev:           60023
Checksum:              303

Satellite: OKEAN-4
Catalog number: 23317
Epoch time:      05201.83587518
Element set:     683
Inclination:      082.5376 deg
RA of node:       226.0061 deg
Eccentricity:    0.0023307
Arg of perigee:   030.0838 deg
Mean anomaly:     330.1755 deg
Mean motion:   14.82189667 rev/day
Decay rate:       2.98e-06 rev/day^2
Epoch rev:           58089
Checksum:              310

Satellite: NOAA-14
Catalog number: 23455
Epoch time:      05202.47646810
Element set:     685
Inclination:      099.0866 deg
RA of node:       251.3624 deg
Eccentricity:    0.0008538
Arg of perigee:   262.3506 deg
Mean anomaly:     097.6712 deg
Mean motion:   14.13582218 rev/day
Decay rate:       2.71e-06 rev/day^2
Epoch rev:           54434
Checksum:              304

Satellite: SICH-1
Catalog number: 23657
Epoch time:      05201.80978948
Element set:    0488
Inclination:      082.5291 deg
RA of node:       006.8863 deg
Eccentricity:    0.0024782
Arg of perigee:   016.1207 deg
Mean anomaly:     344.0789 deg
Mean motion:   14.81199530 rev/day
Decay rate:       2.13e-06 rev/day^2
Epoch rev:           53293
Checksum:              317

Satellite: NOAA-15
Catalog number: 25338
Epoch time:      05202.48714291
Element set:     118
Inclination:      098.5107 deg
RA of node:       209.7760 deg
Eccentricity:    0.0009546
Arg of perigee:   260.1055 deg
Mean anomaly:     099.9059 deg
Mean motion:   14.24527412 rev/day
Decay rate:        9.7e-07 rev/day^2
Epoch rev:           37363
Checksum:              308

Satellite: RESURS
Catalog number: 25394
Epoch time:      05201.93708001
Element set:    0189
Inclination:      098.5381 deg
RA of node:       270.1866 deg
Eccentricity:    0.0002433
Arg of perigee:   074.2112 deg
Mean anomaly:     285.9335 deg
Mean motion:   14.24073077 rev/day
Decay rate:        4.0e-08 rev/day^2
Epoch rev:           36525
Checksum:              276

Satellite: FENGYUN1
Catalog number: 25730
Epoch time:      05202.57921971
Element set:     468
Inclination:      098.6061 deg
RA of node:       202.9888 deg
Eccentricity:    0.0014839
Arg of perigee:   006.8300 deg
Mean anomaly:     353.3087 deg
Mean motion:   14.11795603 rev/day
Decay rate:      -1.57e-06 rev/day^2
Epoch rev:           31936
Checksum:              306

Satellite: OKEAN-0
Catalog number: 25860
Epoch time:      05201.85353619
Element set:     489
Inclination:      097.7545 deg
RA of node:       226.2647 deg
Eccentricity:    0.0002132
Arg of perigee:   093.5705 deg
Mean anomaly:     266.5742 deg
Mean motion:   14.73270747 rev/day
Decay rate:       1.00e-06 rev/day^2
Epoch rev:           32296
Checksum:              300

